Regional Weather Roundup
Issued by NWS

Home | Current Version | Previous Version | Graphics & Text | Print | Product List | Glossary Off
Versions: 1 2 3 4 5 6 7 8 9 10 11 12 13 14 15 16 17 18 19 20 21 22 23 24 25 26 27 28 29 30 31 32 33 34 35 36 37 38 39 40 41 42 43 44 45 46 47 48 49 50

000
ASUS43 KTOP 290059
RWRKS

WEATHER ROUNDUP FOR KANSAS
NATIONAL WEATHER SERVICE GOODLAND KS
800 PM CDT THU AUG 28 2014

NOTE:  "FAIR" INDICATES FEW OR NO CLOUDS BELOW 12,000 FEET WITH NO
SIGNIFICANT WEATHER AND/OR OBSTRUCTIONS TO VISIBILITY.

KSZ001>006-013>018-027>032-041>047-290200-
NORTHWEST KANSAS

CITY           SKY/WX    TMP DP  RH WIND       PRES   REMARKS
GOODLAND       PTCLDY    72  59  63 N14       29.99R
HAYS           MOCLDY    81  63  54 W5        29.85F
HILL CITY      PTCLDY    80  65  59 S3        29.85F
RUSSELL        CLOUDY    75  66  73 SE21G26   29.85R THUNDER
$$

KSZ061>065-074>080-084>089-290200-
SOUTHWEST KANSAS

CITY           SKY/WX    TMP DP  RH WIND       PRES   REMARKS
DODGE CITY     MOCLDY    79  62  56 N3        29.89F
ELKHART          N/A     80  52  37 W3          N/A
GARDEN CITY    MOCLDY    75  69  81 CALM      29.91F
GREAT BEND     CLOUDY    70  59  68 N12       29.87R THUNDER
LIBERAL        PTCLDY    79  57  47 E6        29.93S
$$

KSZ066>073-081>083-090>101-290200-
SOUTHEAST KANSAS

CITY           SKY/WX    TMP DP  RH WIND       PRES   REMARKS
CHANUTE        CLEAR     84  60  44 S9        29.88S
COFFEYVILLE    CLEAR     85  60  42 S9        29.87S
HUTCHINSON     MOCLDY    76  64  66 SE12      29.85F
NEWTON         MOCLDY    75  61  60 S12       29.89F
PARSONS        CLEAR     84  61  45 SE5       29.89S
WICHITA INTL   CLOUDY    74  65  73 S9        29.86F
WICHITA JABRA  MOCLDY    75  64  68 S8        29.86F
WINFIELD       CLOUDY    75  70  84 E5        29.86F
$$

KSZ007>012-019>026-033>040-048>060-102>105-290200-
NORTHEAST KANSAS

CITY           SKY/WX    TMP DP  RH WIND       PRES   REMARKS
CONCORDIA      CLOUDY    75  70  84 SW7       29.85R
EMPORIA        MOCLDY    82  66  58 SE8       29.84F
LAWRENCE       PTCLDY    85  66  53 SE6       29.83S
MANHATTAN      CLOUDY    78  70  76 CALM      29.83S
OLATHE IND     CLEAR     85  66  53 SE12      29.86F
OLATHE EXE     CLEAR     83  65  54 SE9       29.86F
SALINA         MOCLDY    80  66  62 S14       29.83F
TOPEKA BILLARD MOCLDY    87  64  46 S3        29.83R
TOPEKA FORBES  CLOUDY    85  62  46 S5        29.84R
$$



USA.gov is the U.S. government's official web portal to all federal, state and local government web resources and services.